Weather History for Iranshahr, Iran

Change the Weather History Date:

Wednesday, February 13, 2013

  Actual Average Record
Temperature  
Mean Temperature 71 °F -  
Max Temperature 80 °F 79 °F - ()
Min Temperature 62 °F 53 °F - ()
Cooling Degree Days 6    
Growing Degree Days 21 (Base 50)    
Moisture  
Dew Point 45 °F    
Average Humidity 39    
Maximum Humidity 68    
Minimum Humidity 15    
Precipitation  
Precipitation 0.03 in 0.03 in - ()
Sea Level Pressure  
Sea Level Pressure 29.99 in    
Wind  
Wind Speed 3 mph ()    
Max Wind Speed 12 mph    
Max Gust Speed -    
Visibility 5.4 miles    
Events Rain , Thunderstorm    
T = Trace of Precipitation, MM = Missing Value Source: Averaged Metar Reports

Daily Weather History Graph

Daily Weather History Graph

Search for Another Location

Airport:

Trip Planner

Search our weather history database for the weather conditions in past years. The results will help you decide how hot, cold, wet, or windy it might be!

Date:

Astronomy

Feb. 13, 2013 Rise Set
Actual Time 6:05 AM IRST 5:17 PM IRST
Civil Twilight 5:41 AM IRST 5:41 PM IRST
Nautical Twilight 5:14 AM IRST 6:08 PM IRST
Astronomical Twilight 4:46 AM IRST 6:36 PM IRST
Moon 7:43 AM IRST (2/13) 8:28 PM IRST (2/13)
Length of Visible Light 11h 59m
Length of Day
11h 12m
Waxing Crescent, 11% of the Moon is Illuminated
Feb 13
Waxing Crescent
Feb 18
First Quarter
Feb 25
Full
Mar 5
Last Quarter
Mar 11
New

Hourly Weather History & Observations

Time (IRST) Temp. Dew Point Humidity Pressure Visibility Wind Dir Wind Speed Gust Speed Precip Events Conditions
12:30 AM 68.0 °F 44.6 °F 43% 30.01 in - West 4.6 mph - N/A   Clear
3:30 AM 65 °F 45 °F 37% 29.93 in 6 mi Calm Calm - -   Clear
3:30 AM 64.4 °F 44.6 °F 49% 30.01 in - Calm Calm - N/A   Clear
5:30 AM 62.6 °F 46.4 °F 55% 30.04 in - Calm Calm - N/A   Clear
6:30 AM 62.6 °F 44.6 °F 52% 30.04 in - Calm Calm - N/A   Clear
7:30 AM 64.4 °F 46.4 °F 52% 30.06 in - North 4.6 mph - N/A   Clear
8:30 AM 69.8 °F 48.2 °F 46% 30.06 in - Calm Calm - N/A   Clear
9:30 AM 72 °F 48 °F 31% 30.01 in 6 mi West 4.5 mph - -   Scattered Clouds
9:30 AM 71.6 °F 48.2 °F 43% 30.06 in - West 4.6 mph - N/A   Clear
10:30 AM 75.2 °F 46.4 °F 36% 30.06 in - SW 4.6 mph - N/A   Clear
11:30 AM 75.2 °F 46.4 °F 36% 30.04 in - Calm Calm - N/A   Clear
12:30 PM 77.0 °F 44.6 °F 32% 30.01 in 6.2 mi South 4.6 mph - N/A   Mostly Cloudy
1:30 PM 77.0 °F 44.6 °F 32% 29.98 in 6.2 mi SSE 4.6 mph - N/A   Mostly Cloudy
2:30 PM 78.8 °F 41.0 °F 26% 29.95 in 6.2 mi SSW 9.2 mph - N/A   Scattered Clouds
3:30 PM 80 °F 41 °F 15% 29.86 in 6 mi SW 11.2 mph - -   Scattered Clouds
3:30 PM 78.8 °F 41.0 °F 26% 29.92 in 6.2 mi SW 11.5 mph - N/A   Partly Cloudy
4:30 PM 78.8 °F 41.0 °F 26% 29.92 in 6.2 mi SW 4.6 mph - N/A   Mostly Cloudy
5:30 PM 77.0 °F 41.0 °F 28% 29.92 in 6.2 mi SW 4.6 mph - N/A   Mostly Cloudy
6:30 PM 73.4 °F 42.8 °F 33% 29.95 in 3.7 mi South 11.5 mph - N/A   Mostly Cloudy
7:30 PM 71.6 °F 42.8 °F 35% 29.98 in 3.7 mi South 4.6 mph - N/A   Scattered Clouds
8:30 PM 69.8 °F 42.8 °F 38% 29.98 in 5.0 mi Calm Calm - N/A   Unknown
9:30 PM 68 °F 42 °F 28% 29.91 in 5 mi Calm Calm - -   Haze
9:30 PM 68.0 °F 42.8 °F 40% 29.98 in 5.0 mi Calm Calm - N/A   Unknown
10:30 PM 62.6 °F 50.0 °F 63% 30.01 in 3.7 mi North 9.2 mph - N/A Rain , Thunderstorm Thunderstorms and Rain
11:30 PM 62.6 °F 51.8 °F 68% 30.01 in 5.0 mi NE 6.9 mph - N/A   Mostly Cloudy